Eureka, NV

5:46 PM PDT on April 25, 2017 (GMT -0700)
Eureka

Weather History for KP68 - September, 2013

Change the Weather History Date:

Wednesday, September 18, 2013

  Actual Average Record
Temperature  
Mean Temperature 52 °F 57 °F  
Max Temperature 68 °F 77 °F 87 °F (1966)
Min Temperature 35 °F 38 °F 18 °F (1988)
Degree Days  
Heating Degree Days 13 8  
Month to date heating degree days 39 92  
Since 1 July heating degree days 40 139  
Cooling Degree Days 0 0  
Month to date cooling degree days 44 9  
Year to date cooling degree days 585 286  
Growing Degree Days 2 (Base 50)    
Moisture  
Dew Point 29 °F    
Average Humidity 51    
Maximum Humidity 82    
Minimum Humidity 20    
Precipitation  
Precipitation 0.00 in 0.02 in 0.21 in (1963)
Month to date precipitation 1.02 0.35  
Year to date precipitation 5.97 6.64  
Sea Level Pressure  
Sea Level Pressure 29.91 in    
Wind  
Wind Speed 4 mph (NNE)    
Max Wind Speed 16 mph    
Max Gust Speed 18 mph    
T = Trace of Precipitation, MM = Missing Value Source: NWS Daily Summary

Daily Weather History Graph

Daily Weather History Graph

Search for Another Location

Airport or City:

Trip Planner

Search our weather history database for the weather conditions in past years. The results will help you decide how hot, cold, wet, or windy it might be!

Date:

Astronomy

Sep. 18, 2013 Rise Set
Actual Time 6:28 AM PDT 6:46 PM PDT
Civil Twilight 6:01 AM PDT 7:13 PM PDT
Nautical Twilight 5:29 AM PDT 7:45 PM PDT
Astronomical Twilight 4:57 AM PDT 8:17 PM PDT
Moon 6:12 PM PDT (9/18) 5:35 AM PDT (9/18)
Length of Visible Light 13h 12m
Length of Day
12h 18m
Waxing Gibbous, 99% of the Moon is Illuminated
Sep 18
Waxing Gibbous
Sep 19
Full
Sep 26
Last Quarter
Oct 4
New
Oct 11
First Quarter

Hourly Weather History & Observations

Time (PDT) Temp. Windchill Dew Point Humidity Pressure Visibility Wind Dir Wind Speed Gust Speed Precip Events Conditions
12:53 AM 52.0 °F - 33.1 °F 49% 29.76 in - NNW 8.1 mph - N/A   Unknown
1:53 AM 48.9 °F - 33.1 °F 54% 29.78 in - NNW 6.9 mph - N/A   Unknown
2:53 AM 44.1 °F 42.5 °F 34.0 °F 68% 29.79 in - East 3.5 mph - N/A   Unknown
3:53 AM 42.1 °F - 32.0 °F 67% 29.82 in - Calm Calm - N/A   Unknown
4:53 AM 37.9 °F 34.4 °F 30.9 °F 76% 29.85 in - South 4.6 mph - N/A   Unknown
5:53 AM 37.0 °F - 30.9 °F 79% 29.87 in - Calm Calm - N/A   Unknown
6:53 AM 37.0 °F 33.3 °F 32.0 °F 82% 29.91 in - SSW 4.6 mph - N/A   Unknown
7:53 AM 48.0 °F - 35.1 °F 61% 29.91 in - Calm Calm - N/A   Unknown
8:53 AM 51.1 °F - 35.1 °F 54% 29.92 in - NNE 8.1 mph - N/A   Unknown
9:53 AM 55.9 °F - 35.1 °F 45% 29.93 in - NNE 10.4 mph - N/A   Unknown
10:53 AM 55.9 °F - 33.1 °F 42% 29.94 in - Calm Calm - N/A   Unknown
11:53 AM 59.0 °F - 30.9 °F 35% 29.94 in - Variable 4.6 mph 18.4 mph N/A   Unknown
12:53 PM 62.1 °F - 27.0 °F 26% 29.92 in - North - - N/A   Unknown
1:53 PM 64.0 °F - 26.1 °F 24% 29.91 in - North 5.8 mph - N/A   Unknown
2:53 PM 66.0 °F - 26.1 °F 22% 29.91 in - North 5.8 mph - N/A   Unknown
3:53 PM 66.9 °F - 26.1 °F 21% 29.90 in - Variable 4.6 mph - N/A   Unknown
4:53 PM 68.0 °F - 27.0 °F 21% 29.91 in - Variable 5.8 mph - N/A   Unknown
5:53 PM 66.0 °F - 24.1 °F 20% 29.92 in - NE 8.1 mph - N/A   Unknown
6:53 PM 59.0 °F - 25.0 °F 27% 29.96 in - NNE 6.9 mph - N/A   Unknown
7:53 PM 51.1 °F - 26.1 °F 38% 29.97 in - NNW 8.1 mph - N/A   Unknown
8:53 PM 48.9 °F - 26.1 °F 41% 29.99 in - Calm Calm - N/A   Unknown
9:53 PM 46.9 °F - 25.0 °F 42% 29.99 in - East 4.6 mph - N/A   Unknown
10:53 PM 42.1 °F - 27.0 °F 55% 30.03 in - Calm Calm - N/A   Unknown
11:53 PM 39.9 °F 37.8 °F 26.1 °F 58% 30.02 in - SSE 3.5 mph - N/A   Unknown